Location: Lane
(33.5226°N, 79.8788°W)
Time: 17:16:53
(UTC+00:00)

Transit 2A - Pass Details

Date: 05 October 2022
Orbit: 598 x 959 km, 66.7° (Epoch: 06 December)

Event Time Altitude Azimuth Distance (km) Brightness Sun altitude
Rises 02:40:52 0° 186° (S) 2,992 - -45.3°
Reaches altitude 10° 02:43:21 10° 178° (S) 2,036 - -45.7°
Maximum altitude 02:47:31 36° 111° (ESE) 976 - -46.4°
Drops below altitude 10° 02:51:31 10° 45° (NE) 1,948 - -47.1°
Sets 02:53:50 0° 36° (NE) 2,844 - -47.5°
